Time,TemperatureF,DewpointF,PressureIn,WindDirection,WindDirectionDegrees,WindSpeedMPH,WindSpeedGustMPH,Humidity,HourlyPrecipIn,Conditions,Clouds,dailyrainin,SoftwareType,DateUTC
2013-07-31 00:00:00,46.0,31.0,-100.00,WNW,298,10.0,16.0,56,-99.99,,,-99.99,,2013-07-31 06:00:00,
2013-07-31 00:43:00,46.0,31.0,-100.00,WNW,298,10.0,16.0,56,-99.99,,,-99.99,,2013-07-31 06:43:00,
2013-07-31 00:53:00,46.0,31.0,-100.00,WNW,298,10.0,16.0,56,-99.99,,,-99.99,,2013-07-31 06:53:00,
2013-07-31 01:00:00,45.0,31.0,-100.00,WNW,298,7.0,20.0,56,-99.99,,,-99.99,,2013-07-31 07:00:00,
2013-07-31 01:43:00,45.0,31.0,-100.00,WNW,298,7.0,20.0,56,-99.99,,,-99.99,,2013-07-31 07:43:00,
2013-07-31 01:52:00,45.0,31.0,-100.00,WNW,298,7.0,20.0,56,-99.99,,,-99.99,,2013-07-31 07:52:00,
2013-07-31 02:00:00,46.0,29.0,-100.00,WNW,302,14.0,20.0,52,-99.99,,,-99.99,,2013-07-31 08:00:00,
2013-07-31 02:42:00,46.0,29.0,-100.00,WNW,302,14.0,20.0,52,-99.99,,,-99.99,,2013-07-31 08:42:00,
2013-07-31 02:53:00,46.0,29.0,-100.00,WNW,302,14.0,20.0,52,-99.99,,,-99.99,,2013-07-31 08:53:00,
2013-07-31 03:00:00,45.0,30.0,-100.00,NW,318,12.0,18.0,55,-99.99,,,-99.99,,2013-07-31 09:00:00,
2013-07-31 03:44:00,45.0,30.0,-100.00,NW,318,12.0,18.0,55,-99.99,,,-99.99,,2013-07-31 09:44:00,
2013-07-31 03:52:00,45.0,30.0,-100.00,NW,318,12.0,18.0,55,-99.99,,,-99.99,,2013-07-31 09:52:00,
2013-07-31 04:00:00,45.0,30.0,-100.00,NW,326,9.0,17.0,56,-99.99,,,-99.99,,2013-07-31 10:00:00,
2013-07-31 04:44:00,45.0,30.0,-100.00,NW,326,9.0,17.0,56,-99.99,,,-99.99,,2013-07-31 10:44:00,
2013-07-31 04:52:00,45.0,30.0,-100.00,NW,326,9.0,17.0,56,-99.99,,,-99.99,,2013-07-31 10:52:00,
2013-07-31 05:00:00,45.0,30.0,-100.00,NNW,338,11.0,16.0,54,-99.99,,,-99.99,,2013-07-31 11:00:00,
2013-07-31 05:43:00,45.0,30.0,-100.00,NNW,338,11.0,16.0,54,-99.99,,,-99.99,,2013-07-31 11:43:00,
2013-07-31 05:53:00,45.0,30.0,-100.00,NNW,338,11.0,16.0,54,-99.99,,,-99.99,,2013-07-31 11:53:00,
2013-07-31 06:00:00,45.0,28.0,-100.00,NNW,340,11.0,16.0,52,-99.99,,,-99.99,,2013-07-31 12:00:00,
2013-07-31 06:43:00,45.0,28.0,-100.00,NNW,340,11.0,16.0,52,-99.99,,,-99.99,,2013-07-31 12:43:00,
2013-07-31 06:53:00,45.0,28.0,-100.00,NNW,340,11.0,16.0,52,-99.99,,,-99.99,,2013-07-31 12:53:00,
2013-07-31 07:00:00,45.0,27.0,-100.00,NNW,346,10.0,16.0,48,-99.99,,,-99.99,,2013-07-31 13:00:00,
2013-07-31 07:43:00,45.0,27.0,-100.00,NNW,346,10.0,16.0,48,-99.99,,,-99.99,,2013-07-31 13:43:00,
2013-07-31 07:53:00,45.0,27.0,-100.00,NNW,346,10.0,16.0,48,-99.99,,,-99.99,,2013-07-31 13:53:00,
2013-07-31 08:00:00,48.0,28.0,-100.00,NNE,12,4.0,10.0,45,-99.99,,,-99.99,,2013-07-31 14:00:00,
2013-07-31 08:43:00,48.0,28.0,-100.00,NNE,12,4.0,10.0,45,-99.99,,,-99.99,,2013-07-31 14:43:00,
2013-07-31 08:53:00,48.0,28.0,-100.00,NNE,12,4.0,10.0,45,-99.99,,,-99.99,,2013-07-31 14:53:00,
2013-07-31 09:00:00,49.0,30.0,-100.00,SE,130,4.0,7.0,48,-99.99,,,-99.99,,2013-07-31 15:00:00,
2013-07-31 09:44:00,49.0,30.0,-100.00,SE,130,4.0,7.0,48,-99.99,,,-99.99,,2013-07-31 15:44:00,
2013-07-31 09:53:00,49.0,30.0,-100.00,SE,130,4.0,7.0,48,-99.99,,,-99.99,,2013-07-31 15:53:00,
2013-07-31 10:00:00,49.0,29.0,-100.00,SE,138,5.0,10.0,46,-99.99,,,-99.99,,2013-07-31 16:00:00,
2013-07-31 10:44:00,49.0,29.0,-100.00,SE,138,5.0,10.0,46,-99.99,,,-99.99,,2013-07-31 16:44:00,
2013-07-31 10:52:00,49.0,29.0,-100.00,SE,138,5.0,10.0,46,-99.99,,,-99.99,,2013-07-31 16:52:00,
2013-07-31 11:00:00,50.0,30.0,-100.00,SE,135,8.0,15.0,44,-99.99,,,-99.99,,2013-07-31 17:00:00,
2013-07-31 11:43:00,50.0,30.0,-100.00,SE,135,8.0,15.0,44,-99.99,,,-99.99,,2013-07-31 17:43:00,
2013-07-31 11:53:00,50.0,30.0,-100.00,SE,135,8.0,15.0,44,-99.99,,,-99.99,,2013-07-31 17:53:00,
2013-07-31 12:00:00,52.0,28.0,-100.00,SSE,164,7.0,16.0,40,-99.99,,,-99.99,,2013-07-31 18:00:00,
2013-07-31 12:43:00,52.0,28.0,-100.00,SSE,164,7.0,16.0,40,-99.99,,,-99.99,,2013-07-31 18:43:00,
2013-07-31 12:52:00,52.0,28.0,-100.00,SSE,164,7.0,16.0,40,-99.99,,,-99.99,,2013-07-31 18:52:00,
2013-07-31 13:00:00,52.0,26.0,-100.00,SSW,200,7.0,17.0,36,-99.99,,,-99.99,,2013-07-31 19:00:00,
2013-07-31 13:43:00,52.0,26.0,-100.00,SSW,200,7.0,17.0,36,-99.99,,,-99.99,,2013-07-31 19:43:00,
2013-07-31 13:53:00,52.0,26.0,-100.00,SSW,200,7.0,17.0,36,-99.99,,,-99.99,,2013-07-31 19:53:00,
2013-07-31 14:00:00,55.0,28.0,-100.00,WSW,249,6.0,17.0,35,-99.99,,,-99.99,,2013-07-31 20:00:00,
2013-07-31 14:43:00,55.0,28.0,-100.00,WSW,249,6.0,17.0,35,-99.99,,,-99.99,,2013-07-31 20:43:00,
2013-07-31 14:53:00,55.0,28.0,-100.00,WSW,249,6.0,17.0,35,-99.99,,,-99.99,,2013-07-31 20:53:00,
2013-07-31 15:00:00,55.0,30.0,-100.00,NW,318,6.0,14.0,38,-99.99,,,-99.99,,2013-07-31 21:00:00,
2013-07-31 15:43:00,55.0,30.0,-100.00,NW,318,6.0,14.0,38,-99.99,,,-99.99,,2013-07-31 21:43:00,
2013-07-31 15:53:00,55.0,30.0,-100.00,NW,318,6.0,14.0,38,-99.99,,,-99.99,,2013-07-31 21:53:00,
2013-07-31 16:00:00,54.0,28.0,-100.00,NW,326,8.0,17.0,37,-99.99,,,-99.99,,2013-07-31 22:00:00,
2013-07-31 16:43:00,54.0,28.0,-100.00,NW,326,8.0,17.0,37,-99.99,,,-99.99,,2013-07-31 22:43:00,
2013-07-31 16:53:00,54.0,28.0,-100.00,NW,326,8.0,17.0,37,-99.99,,,-99.99,,2013-07-31 22:53:00,
2013-07-31 17:00:00,54.0,29.0,-100.00,NW,323,9.0,19.0,37,-99.99,,,-99.99,,2013-07-31 23:00:00,
2013-07-31 17:42:00,54.0,29.0,-100.00,NW,323,9.0,19.0,37,-99.99,,,-99.99,,2013-07-31 23:42:00,
2013-07-31 17:52:00,54.0,29.0,-100.00,NW,323,9.0,19.0,37,-99.99,,,-99.99,,2013-07-31 23:52:00,
2013-07-31 18:00:00,54.0,29.0,-100.00,NW,309,9.0,19.0,38,-99.99,,,-99.99,,2013-08-01 00:00:00,
2013-07-31 18:43:00,54.0,29.0,-100.00,NW,309,9.0,19.0,38,-99.99,,,-99.99,,2013-08-01 00:43:00,
2013-07-31 18:52:00,54.0,29.0,-100.00,NW,309,9.0,19.0,38,-99.99,,,-99.99,,2013-08-01 00:52:00,
2013-07-31 19:00:00,53.0,28.0,-100.00,NW,325,11.0,19.0,37,-99.99,,,-99.99,,2013-08-01 01:00:00,
2013-07-31 19:43:00,53.0,28.0,-100.00,NW,325,11.0,19.0,37,-99.99,,,-99.99,,2013-08-01 01:43:00,
2013-07-31 19:53:00,53.0,28.0,-100.00,NW,325,11.0,19.0,37,-99.99,,,-99.99,,2013-08-01 01:53:00,
2013-07-31 20:00:00,52.0,27.0,-100.00,NNW,332,11.0,21.0,38,-99.99,,,-99.99,,2013-08-01 02:00:00,
2013-07-31 20:43:00,52.0,27.0,-100.00,NNW,332,11.0,21.0,38,-99.99,,,-99.99,,2013-08-01 02:43:00,
2013-07-31 20:53:00,52.0,27.0,-100.00,NNW,332,11.0,21.0,38,-99.99,,,-99.99,,2013-08-01 02:53:00,
2013-07-31 21:00:00,51.0,27.0,-100.00,NW,322,12.0,17.0,39,-99.99,,,-99.99,,2013-08-01 03:00:00,
2013-07-31 21:43:00,51.0,27.0,-100.00,NW,322,12.0,17.0,39,-99.99,,,-99.99,,2013-08-01 03:43:00,
2013-07-31 21:53:00,51.0,27.0,-100.00,NW,322,12.0,17.0,39,-99.99,,,-99.99,,2013-08-01 03:53:00,
2013-07-31 22:00:00,50.0,27.0,-100.00,WNW,302,11.0,16.0,39,-99.99,,,-99.99,,2013-08-01 04:00:00,
2013-07-31 22:43:00,50.0,27.0,-100.00,WNW,302,11.0,16.0,39,-99.99,,,-99.99,,2013-08-01 04:43:00,
2013-07-31 22:53:00,50.0,27.0,-100.00,WNW,302,11.0,16.0,39,-99.99,,,-99.99,,2013-08-01 04:53:00,
2013-07-31 23:00:00,50.0,26.0,-100.00,West,270,8.0,13.0,39,-99.99,,,-99.99,,2013-08-01 05:00:00,
2013-07-31 23:43:00,50.0,26.0,-100.00,West,270,8.0,13.0,39,-99.99,,,-99.99,,2013-08-01 05:43:00,
2013-07-31 23:53:00,50.0,26.0,-100.00,West,270,8.0,13.0,39,-99.99,,,-99.99,,2013-08-01 05:53:00,